Flag for Russia Weather past 2 weeks in Yakutsk, Russia

Now
55 °F

Partly sunny.


Feels Like: 52 °F
Forecast: 44 / 58 °F
Wind: 13 mph from Northwest

Location: Jakutsk

Current Time: Sep 2, 2015 at 2:37:44 PM

Latest Report: Sep 2, 2015 at 2:00 PM


Visibility: N/A

Pressure: 29.89 "Hg

Humidity: 55%

Dew point: 39 °F

Location of YakutskLocation

Historic Weather in Yakutsk — Graph

°F

Yakutsk temperature yesterday

Maximum temperature yesterday: 63 °F (at 12:00 PM)
Minimum temperature yesterday: 34 °F (at 4:00 AM)
Average temperature yesterday: 51 °F

Past Weeks' High & Low Weather Summary

 TemperatureHumidityPressure
High91 °F (Aug 24, 3:30 PM)94% (Aug 19, 12:00 AM)30.18 "Hg (Aug 19, 12:00 AM)
Low34 °F (Sep 1, 4:00 AM)21% (Aug 24, 4:30 PM)29.74 "Hg (Aug 19, 9:30 AM)
Average60 °F62%29.96 "Hg
* Reported Aug 18 1:00 PM — Sep 2 1:00 PM, Yakutsk, Weather by CustomWeather, © 2015

Note: Actual official high and low records may vary slightly from our data, if they occured in-between our weather recording intervals... More about our weather records

Advertising

Yakutsk weather history for previous 24 hours

 ConditionsComfort  
Time TempWeatherWind HumidityBarometerVisibility
1:00 PM
Wed, Sep 2
54 °FPartly sunny.13 mph58%29.89 "HgN/A
12:30 PM54 °FPartly sunny.13 mph63%29.89 "HgN/A
12:00 PM54 °FPartly sunny.10 mph63%29.89 "HgN/A
11:30 AM54 °FPartly sunny.10 mph63%29.89 "HgN/A
11:00 AM54 °FPartly sunny.10 mph63%29.89 "HgN/A
10:30 AM52 °FPartly sunny.8 mph72%29.89 "HgN/A
10:00 AM52 °FPartly sunny.10 mph72%29.89 "HgN/A
9:30 AM52 °FPartly sunny.13 mph72%29.89 "HgN/A
9:00 AM52 °FPartly sunny.8 mph72%29.89 "HgN/A
8:30 AM50 °FPartly sunny.8 mph76%29.89 "HgN/A
8:00 AM50 °FScattered clouds.10 mph76%29.89 "HgN/A
7:30 AM48 °FScattered clouds.13 mph82%29.86 "HgN/A
6:30 AM46 °FSunny.6 mph87%29.86 "Hg10 mi
6:00 AM46 °FSunny.6 mph87%29.86 "Hg10 mi
5:30 AM46 °FPassing clouds.8 mph87%29.83 "HgN/A
5:00 AM48 °FPassing clouds.8 mph82%29.83 "HgN/A
4:30 AM50 °FPassing clouds.10 mph76%29.83 "HgN/A
4:00 AM50 °FPassing clouds.8 mph76%29.83 "HgN/A
3:30 AM50 °FClear.6 mph71%29.83 "Hg10 mi
3:00 AM50 °FClear.8 mph67%29.83 "Hg10 mi
2:30 AM48 °FClear.6 mph71%29.83 "Hg10 mi
2:00 AM48 °FClear.8 mph71%29.83 "Hg10 mi
1:30 AM50 °FClear.8 mph62%29.83 "Hg10 mi
1:00 AM48 °FClear.3 mph66%29.83 "Hg10 mi
12:30 AM48 °FClear.3 mph71%29.83 "Hg10 mi
12:00 AM48 °FClear.3 mph71%29.83 "Hg10 mi
11:30 PM
Tue, Sep 1
48 °FClear.3 mph76%29.83 "Hg10 mi
11:00 PM46 °FClear.3 mph76%29.83 "Hg10 mi
10:30 PM48 °FPassing clouds.1 mph71%29.83 "HgN/A
10:00 PM48 °FPassing clouds.1 mph71%29.86 "HgN/A
9:30 PM54 °FPassing clouds.3 mph58%29.86 "HgN/A
9:00 PM55 °FPassing clouds.3 mph55%29.86 "HgN/A
8:30 PM57 °FClear.3 mph51%29.86 "Hg10 mi
8:00 PM57 °FClear.3 mph51%29.86 "Hg10 mi
7:30 PM59 °FSunny.1 mph48%29.86 "Hg10 mi
7:00 PM59 °FSunny.1 mph48%29.86 "Hg10 mi
6:30 PM61 °FSunny.1 mph45%29.83 "Hg10 mi
6:00 PM61 °FSunny.3 mph42%29.83 "Hg10 mi
5:30 PM63 °FSunny.3 mph39%29.83 "Hg10 mi
5:00 PM63 °FSunny.1 mph39%29.83 "Hg10 mi
4:30 PM63 °FSunny.3 mph42%29.83 "Hg10 mi
4:00 PM63 °FSunny.3 mph42%29.83 "Hg10 mi
3:30 PM63 °FSunny.3 mph42%29.83 "Hg10 mi
3:00 PM63 °FSunny.3 mph37%29.83 "Hg10 mi
2:30 PM63 °FSunny.1 mph37%29.86 "Hg10 mi
2:00 PM63 °FSunny.1 mph37%29.86 "Hg10 mi
Weather by CustomWeather, © 2015

See weather overviewHow to use our weather pages